Overview Statistics Trail Chart Weather Telemetry Raw packets
 

This is the latest recevied weather packets stored in our database for station/object KO6HRZ. If no packets are shown the sender has not sent any weather packets the latest 10 day(s).

<< 51 52 53 54 55 56 57 >>
Time Temp. Humidity Pressure Rain* Wind** Luminosity Snow
1787882276 31.67° C 42% 1010.8 hPa 0 mm - 37 W/m² -
1787881670 32.22° C 40% 1011.1 hPa 0 mm - 50 W/m² -
1787881067 32.78° C 39% 1011 hPa 0 mm - 63 W/m² -
1787880467 32.78° C 39% 1010.9 hPa 0 mm - 71 W/m² -
1787879862 32.78° C 39% 1011 hPa 0 mm - 83 W/m² -
1787879259 32.78° C 38% 1011.1 hPa 0 mm - 85 W/m² -
1787878655 33.33° C 37% 1010.9 hPa 0 mm - 91 W/m² -
1787878051 33.89° C 35% 1010.7 hPa 0 mm - 117 W/m² -
1787877448 33.89° C 34% 1011.1 hPa 0 mm - 140 W/m² -
1787876843 34.44° C 34% 1010.9 hPa 0 mm - 168 W/m² -
1787876243 34.44° C 34% 1011.2 hPa 0 mm - 193 W/m² -
1787875639 35° C 34% 1011 hPa 0 mm - 187 W/m² -
1787875036 35.56° C 33% 1011 hPa 0 mm - 234 W/m² -
1787874435 35° C 33% 1011 hPa 0 mm - 243 W/m² -
1787873831 35.56° C 32% 1011 hPa 0 mm - 230 W/m² -
1787873232 35.56° C 33% 1011.2 hPa 0 mm - 286 W/m² -
1787872632 35° C 33% 1011 hPa 0 mm - 249 W/m² -
1787872027 35.56° C 32% 1011.2 hPa 0 mm - 191 W/m² -
1787871424 36.67° C 31% 1011.1 hPa 0 mm - 425 W/m² -
1787870818 36.11° C 32% 1011.2 hPa 0 mm - 600 W/m² -
1787870214 35.56° C 35% 1011.3 hPa 0 mm - 561 W/m² -
1787869614 35.56° C 33% 1011.3 hPa 0 mm - 391 W/m² -
1787869014 35° C 33% 1011.2 hPa 0 mm - 309 W/m² -
1787868411 36.67° C 32% 1011.4 hPa 0 mm - 469 W/m² -
1787867807 36.67° C 33% 1011.4 hPa 0 mm - 484 W/m² -

* Rain latest hour (hover to see other rain measurements)
** Current wind speed in m/s (hover to see current wind gust speed)